Location: Newark
(44.1667°N, 8.2500°E)
Time: 08:56:38
(UTC+00:00)

Explorer 11/Cluster Stage 4 - Pass Details

Date: 24 December 2019
Orbit: 467 x 1259 km, 28.8° (Epoch: 25 January)

Event Time Altitude Azimuth Distance (km) Brightness Sun altitude
Exits shadow 04:36:12 13° 214° (SW) 2,810 9.2 -24.8°
Maximum altitude 04:41:06 24° 170° (S) 2,283 9.1 -23.9°
Drops below altitude 10° 04:47:13 10° 121° (ESE) 3,223 10.7 -22.9°
Sets 04:50:50 0° 109° (ESE) 4,199 11.8 -22.2°
